Vorticity
6 5 5 4 7 7 3 10 11 7 3 25 7 11 4 7 4 2 2 2 3 3 3 5 6 6 7 7 8 8 7 6 5
4 3 2 3 3 3 2 2 5 6 7 3 28 3 14 -1 8 7 4 3 2 3 3 3 4 5 6 6 6 7 8 7 6
3 2 2 1 2 1 2 1 2 4 5 5 4 23 4 14 11 -3 8 8 4 3 2 3 3 4 4 5 5 6 7 8 7
6 -0 0 2 1 0 1 0 -0 1 3 3 7 3 22 4 7 11 11 -4 5 8 4 3 3 3 4 4 4 4 6 8 7
5 4 3 3 2 3 2 1 1 1 0 1 1 4 8 9 15 6 2 9 11 1 6 6 4 3 3 4 5 6 6 6 7
2 2 2 2 2 3 3 3 3 3 3 3 1 1 2 5 6 5 12 16 9 5 9 3 7 5 4 3 3 3 4 5 6
2 2 1 1 2 2 2 3 4 4 4 3 3 3 1 2 3 5 2 -0 3 14 13 9 4 9 6 6 4 3 3 3 4
2 3 2 1 1 2 2 2 2 3 3 4 4 4 4 3 1 2 4 4 4 4 9 14 10 3 8 10 6 5 4 4 4
3 3 3 3 2 1 1 1 1 2 2 2 2 2 2 3 4 4 2 3 4 5 5 9 12 12 6 -2 4 10 10 8 6
6 7 6 4 3 2 2 1 2 2 3 3 2 0 2 3 3 2 3 4 2 4 5 5 7 11 9 9 10 -1 -3 0 5
5 4 3 4 5 5 4 3 3 3 4 2 2 4 5 5 5 4 3 2 3 2 3 4 3 4 7 10 8 9 9 7 6
12 11 10 10 7 8 6 7 8 8 8 8 5 6 8 5 7 3 3 3 3 4 2 2 3 2 3 3 7 10 8 8 8
3 4 7 8 9 9 8 8 8 7 7 7 8 9 5 6 8 8 6 7 7 3 4 4 2 2 3 2 3 6 6 9 8
2 2 3 2 2 2 3 4 4 3 4 4 3 3 2 8 16 6 6 7 7 6 4 3 6 2 2 2 2 2 5 8 -1
5 4 3 4 3 4 3 2 1 1 1 1 1 0 1 1 4 17 38 -6 11 1 8 7 3 5 4 3 1 2 2 2 5
7 7 8 8 8 8 9 8 4 4 4 5 5 5 8 10 4 0 5 10 -38 26 10 1 4 6 4 5 5 2 1 3 2
7 7 7 9 10 9 9 9 11 15 15 11 5 4 6 7 8 7 -0 2 -2 4 7 -1 36 -3 3 8 9 3 7 3 4
15 15 12 11 10 14 16 16 15 9 10 12 10 10 9 7 5 8 8 4 4 5 -10 -18 3 16 12 2 4 8 15 3 -2
22 16 10 11 22 28 24 27 25 24 24 22 16 12 11 2 9 6 7 7 9 6 -11 5 -4 -12 -7 11 1 10 8 6 14
13 15 16 13 12 12 12 11 8 6 8 12 15 18 20 11 21 16 6 2 7 6 8 5 12 3 6 23 2 7 11 8 -1
Height
5886 5885 5885 5884 5884 5884 5883 5881 5881 5880 5879 5878 5879 5879 5878 5878 5878 5878 5878 5878 5877 5876 5876 5875 5874 5873 5872 5872 5871 5870 5870 5869 5868
5883 5883 5883 5882 5882 5882 5881 5880 5879 5879 5878 5877 5876 5876 5876 5876 5875 5876 5876 5876 5875 5875 5874 5873 5872 5871 5870 5869 5868 5868 5867 5866 5865
5881 5881 5880 5880 5880 5879 5878 5877 5877 5877 5875 5874 5874 5873 5872 5873 5873 5873 5873 5873 5873 5872 5871 5871 5870 5869 5868 5868 5866 5865 5865 5864 5863
5879 5878 5878 5877 5877 5877 5876 5875 5874 5874 5873 5871 5871 5870 5870 5870 5869 5870 5869 5870 5869 5869 5868 5868 5867 5866 5866 5865 5864 5863 5862 5862 5861
5875 5874 5874 5873 5873 5873 5872 5872 5871 5870 5870 5869 5867 5867 5867 5867 5866 5866 5865 5866 5865 5865 5864 5864 5864 5863 5863 5862 5861 5861 5860 5859 5858
5870 5870 5869 5869 5869 5868 5868 5868 5867 5867 5866 5865 5864 5863 5863 5863 5862 5862 5861 5861 5861 5861 5861 5860 5860 5859 5859 5859 5858 5857 5856 5856 5855
5864 5864 5863 5863 5862 5862 5862 5862 5862 5862 5862 5861 5860 5859 5858 5858 5858 5857 5857 5856 5856 5855 5855 5855 5855 5855 5854 5854 5855 5854 5853 5852 5851
5858 5858 5857 5856 5856 5856 5855 5855 5856 5856 5856 5856 5856 5855 5853 5852 5852 5852 5851 5851 5850 5850 5850 5849 5849 5850 5849 5849 5849 5849 5849 5848 5848
5848 5848 5848 5848 5848 5848 5848 5848 5847 5848 5848 5849 5850 5849 5848 5847 5847 5847 5846 5845 5844 5844 5844 5844 5844 5844 5844 5844 5844 5844 5843 5843 5843
5840 5840 5840 5839 5839 5838 5838 5839 5839 5839 5839 5840 5841 5842 5841 5840 5839 5840 5839 5839 5838 5838 5838 5838 5838 5838 5838 5839 5839 5839 5838 5838 5837
5828 5828 5828 5828 5828 5828 5828 5828 5829 5829 5829 5829 5830 5832 5832 5831 5830 5830 5830 5831 5830 5830 5831 5831 5831 5831 5832 5832 5832 5832 5832 5832 5832
5817 5817 5817 5817 5816 5816 5816 5817 5817 5818 5818 5819 5819 5819 5821 5821 5820 5819 5819 5820 5822 5822 5822 5823 5824 5824 5825 5825 5825 5826 5826 5826 5825
5805 5806 5805 5804 5804 5804 5804 5805 5804 5805 5806 5806 5806 5807 5807 5808 5809 5809 5809 5809 5810 5813 5813 5814 5814 5816 5816 5817 5818 5819 5819 5819 5819
5792 5793 5793 5792 5792 5791 5791 5792 5791 5791 5792 5793 5793 5794 5793 5795 5794 5799 5800 5800 5800 5801 5803 5804 5805 5806 5807 5808 5809 5810 5812 5812 5813
5777 5777 5778 5777 5776 5777 5777 5777 5777 5777 5778 5778 5779 5780 5781 5782 5781 5784 5785 5788 5789 5790 5790 5793 5796 5796 5797 5799 5800 5801 5803 5805 5806
5762 5762 5761 5759 5759 5760 5759 5760 5761 5761 5761 5760 5762 5763 5765 5766 5768 5771 5774 5771 5765 5776 5778 5780 5783 5785 5786 5787 5790 5791 5792 5795 5797
5745 5744 5743 5741 5741 5741 5741 5740 5741 5744 5744 5743 5741 5744 5747 5750 5752 5755 5758 5766 5766 5765 5760 5765 5768 5772 5774 5775 5778 5781 5783 5784 5786
5727 5725 5724 5723 5721 5722 5721 5721 5722 5723 5724 5721 5721 5723 5728 5729 5734 5738 5740 5744 5748 5749 5741 5751 5757 5758 5761 5764 5766 5768 5771 5773 5774
5711 5710 5708 5706 5705 5704 5704 5703 5703 5704 5705 5703 5702 5703 5707 5705 5709 5716 5721 5723 5728 5734 5734 5739 5744 5747 5749 5752 5755 5757 5757 5760 5763
5701 5698 5696 5695 5694 5692 5690 5688 5687 5686 5686 5685 5683 5682 5684 5684 5683 5692 5698 5701 5707 5711 5717 5721 5725 5731 5736 5738 5742 5745 5743 5745 5748